TimeEST,TemperatureF,Dew PointF,Humidity,Sea Level PressureIn,VisibilityMPH,Wind Direction,Wind SpeedMPH,Gust SpeedMPH,PrecipitationIn,Events,Conditions,WindDirDegrees,DateUTC
12:05 AM,59.0,55.4,88,29.92,4.0,West,8.1,-,0.02,Rain,Heavy Rain,280,2013-11-07 05:05:00
12:30 AM,57.2,53.6,88,29.94,10.0,WNW,11.5,18.4,0.07,Rain,Light Rain,290,2013-11-07 05:30:00
12:53 AM,57.0,53.1,87,29.93,8.0,WNW,9.2,-,0.10,Rain,Light Rain,290,2013-11-07 05:53:00
1:04 AM,55.4,53.6,94,29.93,5.0,WNW,5.8,-,0.02,Rain,Rain,300,2013-11-07 06:04:00
1:31 AM,51.8,46.4,82,29.96,8.0,NNW,18.4,24.2,0.06,Rain,Rain,330,2013-11-07 06:31:00
1:53 AM,48.0,43.0,83,29.97,10.0,WNW,10.4,19.6,0.08,Rain,Light Rain,300,2013-11-07 06:53:00
2:36 AM,46.4,42.8,87,29.97,10.0,WNW,9.2,-,0.02,Rain,Light Rain,290,2013-11-07 07:36:00
2:53 AM,46.9,43.0,86,29.99,6.0,WNW,6.9,-,0.03,Rain,Rain,290,2013-11-07 07:53:00
3:53 AM,45.0,41.0,86,30.00,9.0,WNW,11.5,-,0.06,Rain,Light Rain,300,2013-11-07 08:53:00
4:08 AM,44.6,41.0,87,30.01,10.0,NW,8.1,-,0.01,Rain,Light Rain,310,2013-11-07 09:08:00
4:30 AM,44.6,41.0,87,30.00,10.0,NW,8.1,-,0.03,Rain,Light Rain,320,2013-11-07 09:30:00
4:38 AM,44.6,41.0,87,30.01,10.0,NW,8.1,-,0.03,Rain,Light Rain,310,2013-11-07 09:38:00
4:53 AM,45.0,41.0,86,30.02,10.0,WNW,6.9,-,0.03,,Overcast,300,2013-11-07 09:53:00
5:53 AM,45.0,39.9,82,30.03,10.0,NW,8.1,-,N/A,,Overcast,310,2013-11-07 10:53:00
6:26 AM,44.6,39.2,81,30.04,10.0,NW,6.9,16.1,N/A,,Overcast,310,2013-11-07 11:26:00
6:40 AM,44.6,39.2,81,30.04,10.0,NW,6.9,-,N/A,,Overcast,310,2013-11-07 11:40:00
6:53 AM,44.1,39.0,82,30.05,10.0,NW,6.9,-,N/A,,Overcast,310,2013-11-07 11:53:00
7:53 AM,43.0,37.9,82,30.09,9.0,WNW,10.4,19.6,0.00,Rain,Light Rain,300,2013-11-07 12:53:00
8:53 AM,43.0,36.0,76,30.12,10.0,WNW,9.2,-,0.00,,Overcast,300,2013-11-07 13:53:00
9:16 AM,42.8,35.6,76,30.11,10.0,NW,8.1,-,N/A,,Overcast,310,2013-11-07 14:16:00
9:32 AM,42.8,35.6,76,30.11,10.0,WNW,9.2,-,N/A,,Overcast,300,2013-11-07 14:32:00
9:53 AM,43.0,36.0,76,30.13,10.0,NW,11.5,18.4,N/A,,Overcast,310,2013-11-07 14:53:00
10:04 AM,44.6,35.6,71,30.12,10.0,WNW,9.2,-,N/A,,Overcast,300,2013-11-07 15:04:00
10:45 AM,46.4,35.6,66,30.13,10.0,WNW,9.2,-,N/A,,Overcast,300,2013-11-07 15:45:00
10:53 AM,46.9,33.1,59,30.13,10.0,WNW,12.7,-,N/A,,Overcast,300,2013-11-07 15:53:00
11:53 AM,45.0,32.0,60,30.14,10.0,WNW,11.5,19.6,N/A,,Overcast,290,2013-11-07 16:53:00
12:53 PM,44.1,28.0,53,30.13,10.0,WNW,11.5,20.7,N/A,,Overcast,290,2013-11-07 17:53:00
1:53 PM,44.1,25.0,47,30.14,10.0,West,16.1,24.2,N/A,,Partly Cloudy,280,2013-11-07 18:53:00
2:53 PM,43.0,24.1,47,30.14,10.0,WNW,13.8,24.2,N/A,,Overcast,290,2013-11-07 19:53:00
3:53 PM,43.0,25.0,49,30.15,10.0,WNW,15.0,21.9,N/A,,Overcast,300,2013-11-07 20:53:00
4:53 PM,42.1,25.0,51,30.15,10.0,West,10.4,17.3,N/A,,Overcast,280,2013-11-07 21:53:00
5:53 PM,42.1,26.1,53,30.17,10.0,West,5.8,-,N/A,,Overcast,270,2013-11-07 22:53:00
6:53 PM,41.0,27.0,57,30.18,10.0,WSW,3.5,-,N/A,,Overcast,250,2013-11-07 23:53:00
7:53 PM,41.0,28.0,60,30.18,10.0,WSW,3.5,-,N/A,,Overcast,250,2013-11-08 00:53:00
8:53 PM,39.9,27.0,60,30.17,10.0,WSW,5.8,-,N/A,,Overcast,250,2013-11-08 01:53:00
9:53 PM,39.9,27.0,60,30.17,10.0,WSW,4.6,-,N/A,,Overcast,240,2013-11-08 02:53:00
10:53 PM,39.9,27.0,60,30.16,10.0,WSW,4.6,-,N/A,,Overcast,250,2013-11-08 03:53:00
11:53 PM,39.9,27.0,60,30.15,10.0,WSW,6.9,-,N/A,,Overcast,250,2013-11-08 04:53:00